Yellowstone, WY

4:13 AM MDT on June 29, 2017 (GMT -0600)
Yellowstone

Weather History for KP60 - April, 2013

Change the Weather History Date:

Wednesday, April 3, 2013

  Actual Average Record
Temperature  
Mean Temperature 35 °F 28 °F  
Max Temperature 49 °F 41 °F 50 °F (2016)
Min Temperature 21 °F 15 °F -14 °F (2008)
Degree Days  
Heating Degree Days 30 37  
Month to date heating degree days 97 112  
Since 1 July heating degree days 9360 9351  
Cooling Degree Days 0 0  
Month to date cooling degree days 0 0  
Year to date cooling degree days 0 0  
Moisture  
Dew Point 23 °F    
Average Humidity 63    
Maximum Humidity 92    
Minimum Humidity 34    
Precipitation  
Precipitation 0.00 in 0.06 in 0.33 in (2009)
Month to date precipitation 0.00 0.18  
Year to date precipitation 4.65 4.91  
Sea Level Pressure  
Sea Level Pressure 30.16 in    
Wind  
Wind Speed 2 mph (NNW)    
Max Wind Speed 12 mph    
Max Gust Speed 18 mph    
T = Trace of Precipitation, MM = Missing Value Source: NWS Daily Summary

Daily Weather History Graph

Daily Weather History Graph

Search for Another Location

Airport or City:

Trip Planner

Search our weather history database for the weather conditions in past years. The results will help you decide how hot, cold, wet, or windy it might be!

Date:

Astronomy

Apr. 03, 2013 Rise Set
Actual Time 6:58 AM MDT 7:52 PM MDT
Civil Twilight 6:28 AM MDT 8:21 PM MDT
Nautical Twilight 5:53 AM MDT 8:56 PM MDT
Astronomical Twilight 5:16 AM MDT 9:33 PM MDT
Moon 2:57 AM MDT (4/3) 12:53 PM MDT (4/3)
Length of Visible Light 13h 52m
Length of Day
12h 53m
Last Quarter, 44% of the Moon is Illuminated
Apr 3
Last Quarter
Apr 10
New
Apr 18
First Quarter
Apr 25
Full
May 2
Last Quarter

Hourly Weather History & Observations

Time (MDT) Temp. Windchill Dew Point Humidity Pressure Visibility Wind Dir Wind Speed Gust Speed Precip Events Conditions
12:56 AM 25.0 °F - 19.9 °F 81% 30.14 in - Calm Calm - N/A   Unknown
1:56 AM 25.0 °F - 19.9 °F 81% 30.13 in - Calm Calm - N/A   Unknown
2:56 AM 26.1 °F - 19.9 °F 78% 30.12 in - Calm Calm - N/A   Unknown
3:56 AM 25.0 °F - 21.0 °F 85% 30.10 in - Calm Calm - N/A   Unknown
4:56 AM 24.1 °F - 19.9 °F 84% 30.12 in - Calm Calm - N/A   Unknown
5:56 AM 23.0 °F - 19.0 °F 85% 30.12 in - Calm Calm - N/A   Unknown
6:56 AM 21.9 °F - 19.0 °F 89% 30.16 in - Calm Calm - N/A   Unknown
7:56 AM 24.1 °F - 21.0 °F 88% 30.19 in - Calm Calm - N/A   Unknown
8:56 AM 28.9 °F - 23.0 °F 78% 30.18 in - Calm Calm - N/A   Unknown
9:56 AM 34.0 °F - 24.1 °F 67% 30.17 in - Calm Calm - N/A   Unknown
10:56 AM 37.9 °F 35.5 °F 25.0 °F 60% 30.18 in - Variable 3.5 mph - N/A   Unknown
11:56 AM 41.0 °F 39.0 °F 25.0 °F 53% 30.16 in - East 3.5 mph - N/A   Unknown
12:56 PM 41.0 °F - 25.0 °F 53% 30.18 in - Calm Calm - N/A   Unknown
1:56 PM 42.1 °F 39.2 °F 25.0 °F 51% 30.16 in - Variable 4.6 mph - N/A   Unknown
2:56 PM 44.1 °F 41.5 °F 24.1 °F 45% 30.14 in - Variable 4.6 mph - N/A   Unknown
3:56 PM 45.0 °F 40.6 °F 19.0 °F 36% 30.15 in - NNW 8.1 mph - N/A   Unknown
4:56 PM 46.9 °F - 19.0 °F 33% 30.14 in - Variable 4.6 mph - N/A   Unknown
5:56 PM 44.1 °F 42.5 °F 21.0 °F 40% 30.17 in - Variable 3.5 mph - N/A   Unknown
6:56 PM 42.1 °F - 25.0 °F 51% 30.19 in - Calm Calm - N/A   Unknown
7:56 PM 39.9 °F 37.8 °F 23.0 °F 51% 30.19 in - Variable 3.5 mph - N/A   Unknown
8:56 PM 37.0 °F 30.4 °F 26.1 °F 65% 30.22 in - West 9.2 mph - N/A   Unknown
9:56 PM 33.1 °F - 27.0 °F 78% 30.19 in - Calm Calm - N/A   Unknown
10:56 PM 33.1 °F - 30.0 °F 89% 30.17 in - Calm Calm - N/A   Unknown
11:56 PM 28.9 °F - 27.0 °F 92% 30.16 in - Calm Calm - N/A   Unknown